ECMWFFLT2_700_spd_000.txt.gz
Wind_Speed
10 10 11 12 13 13 13 14 15 15 16 17 18 18 18 18 18 19 19 19 19 19 19 19 19 19 19 19 20 20 20 20 21 21 22 22 23 23 24 24 26 27 27 27 28 28 27 27 27 27 27 28
11 11 11 12 13 14 14 15 16 17 18 18 19 19 19 19 19 19 20 20 21 20 20 20 20 20 20 20 20 21 21 22 22 23 23 23 23 24 24 26 27 28 28 29 29 29 28 28 28 28 28 28
12 11 12 13 13 14 15 16 17 19 19 20 20 20 20 20 19 19 20 21 21 21 21 21 21 21 21 21 21 21 22 22 23 23 23 23 24 24 25 27 28 28 29 29 29 29 28 28 29 29 29 29
12 12 12 13 14 15 16 17 18 19 19 20 20 20 20 20 20 19 20 20 21 21 22 22 22 22 22 22 22 22 22 23 23 24 24 24 24 25 25 27 28 28 28 28 28 28 27 28 28 29 29 29
13 12 12 13 14 15 16 17 18 19 20 20 20 20 20 20 19 19 19 20 20 21 21 22 22 22 23 23 23 23 23 23 23 24 24 24 25 24 25 27 27 27 27 27 27 26 27 27 27 28 28 28
13 13 13 13 14 16 16 17 18 19 19 20 20 20 20 20 19 19 19 19 20 20 21 21 22 23 23 23 23 23 23 24 24 24 24 25 25 25 26 27 26 26 26 26 26 26 26 26 26 26 26 26
13 13 13 13 14 15 16 17 18 19 20 20 20 20 20 20 19 19 19 19 20 20 21 21 22 23 23 23 23 24 24 24 25 25 25 26 26 26 26 26 26 26 26 26 26 26 26 25 25 25 25 25
13 13 13 13 14 15 16 17 18 18 19 20 20 20 20 20 20 20 20 20 20 20 21 21 22 23 23 23 23 24 25 25 26 26 26 26 27 27 26 26 26 26 26 26 26 26 26 25 25 24 24 24
14 14 13 13 14 15 16 17 17 18 19 19 20 20 21 21 21 21 21 20 20 21 21 22 23 24 24 24 24 24 25 26 26 27 27 27 27 27 26 26 26 26 26 26 26 25 25 25 24 24 24 24
15 14 13 13 15 16 17 17 18 18 19 19 20 21 21 22 22 22 22 21 21 22 22 23 24 24 24 25 25 25 25 26 27 27 27 27 27 27 26 26 26 27 27 26 26 25 24 24 24 24 23 23
16 14 14 15 16 17 17 18 18 18 19 19 20 21 21 22 22 22 23 23 22 23 23 24 24 25 25 26 26 26 26 26 27 27 27 27 27 27 27 26 27 27 27 27 26 25 24 24 24 23 23 23
16 15 16 16 18 18 18 19 19 18 19 20 20 21 21 22 22 23 23 24 24 24 24 24 25 26 26 27 27 27 27 27 28 28 28 28 28 28 27 27 28 28 28 28 27 26 25 24 24 23 23 24
17 16 16 17 19 19 19 20 19 19 19 19 20 20 20 21 22 23 24 24 24 25 25 25 26 27 27 28 28 29 29 28 28 28 28 28 28 28 28 28 29 29 29 29 28 27 26 25 24 24 24 24
18 17 17 18 19 19 21 21 20 20 20 19 19 20 20 21 22 23 24 24 25 26 26 26 27 27 27 28 29 29 30 30 29 29 29 29 29 29 29 29 29 30 30 29 29 28 28 27 25 25 24 25
19 18 17 18 19 21 22 22 22 21 20 20 20 19 20 21 22 22 24 24 25 26 27 27 27 27 28 28 28 30 30 30 30 29 30 30 30 29 29 29 30 30 31 30 30 29 29 28 27 26 25 25
20 18 18 18 20 22 22 22 22 22 21 21 20 20 21 21 21 22 23 24 25 25 26 27 28 28 28 27 28 30 30 31 30 30 30 30 30 30 29 29 30 30 31 31 30 29 29 28 28 27 26 26
19 18 18 19 21 22 22 23 23 22 22 21 21 21 21 21 22 22 23 23 24 25 26 27 27 28 27 27 29 31 31 31 31 31 31 30 30 30 30 29 30 30 30 30 30 30 29 28 28 27 27 27
18 18 19 20 21 22 23 24 24 24 23 23 22 22 22 22 22 23 23 23 24 25 26 27 28 28 28 28 30 31 32 31 31 31 31 31 31 30 29 29 29 30 30 30 30 29 29 28 28 28 28 28
19 20 20 21 22 23 24 25 25 25 24 24 24 24 24 24 24 24 25 25 25 26 27 28 29 29 29 30 31 33 33 32 32 32 32 32 31 30 29 29 30 30 30 30 29 29 29 28 28 28 28 28
22 22 23 23 23 24 25 27 27 27 26 25 26 25 25 25 26 26 27 27 28 29 30 30 31 31 32 33 34 36 35 34 33 33 33 33 32 30 30 30 30 30 30 30 30 30 29 28 28 28 29 29
25 26 26 25 25 26 27 28 29 28 27 27 27 27 27 27 27 28 29 30 30 32 33 33 34 34 35 36 37 38 39 37 36 35 35 34 33 31 30 30 30 30 31 31 31 30 29 29 29 29 29 29
27 28 29 28 29 29 30 31 31 31 31 31 30 30 30 29 29 29 30 31 32 33 35 35 36 36 38 39 40 41 42 40 39 37 36 36 34 32 31 30 30 31 31 32 32 31 30 29 29 30 30 30
28 29 30 32 33 33 33 32 33 34 35 35 36 35 34 33 32 32 32 33 34 35 36 36 37 37 38 40 42 43 44 43 41 39 38 38 36 35 33 31 30 32 32 33 32 32 31 30 30 30 31 30
26 29 32 34 34 32 30 30 31 33 35 37 40 41 40 38 38 37 36 36 36 36 37 38 38 38 39 41 42 44 45 45 43 41 40 40 39 37 34 31 31 32 33 34 33 32 32 31 31 31 31 31
27 31 33 34 32 30 29 30 31 32 34 36 39 42 44 43 42 41 40 38 37 37 38 40 40 40 40 40 42 43 44 45 44 42 41 41 41 39 35 33 32 33 34 35 34 34 33 32 32 32 32 33
29 31 32 31 30 30 31 32 32 33 34 36 38 41 43 43 41 40 40 39 39 38 39 41 41 40 40 40 41 42 43 45 45 44 43 43 42 40 37 35 34 34 34 36 36 35 35 34 33 33 33 34
28 29 30 30 31 31 31 31 31 32 33 35 38 40 41 41 40 40 40 40 41 41 41 43 43 42 41 41 41 42 44 45 45 45 44 43 43 42 40 37 36 36 35 36 36 37 37 35 34 33 34 34
29 30 30 31 32 32 32 31 31 30 31 33 35 35 35 36 37 39 41 42 43 44 45 46 46 45 44 43 42 43 45 45 45 45 45 44 43 44 42 38 37 38 37 36 36 37 38 36 35 34 34 34
32 33 33 34 35 36 37 37 36 35 33 33 33 33 33 34 37 39 41 43 44 45 46 47 47 47 48 46 44 44 46 46 46 46 45 45 44 45 44 41 40 41 40 37 36 37 38 37 38 36 34 34
35 36 37 38 38 38 39 40 41 41 39 38 37 37 38 38 38 39 40 42 43 45 46 47 47 48 50 48 46 46 47 47 48 47 46 46 45 46 46 44 43 42 41 39 38 37 38 39 40 38 36 35
36 37 38 39 40 39 40 41 42 41 41 40 40 39 40 39 37 37 38 39 41 42 43 45 47 48 50 48 46 46 47 49 49 48 47 46 46 47 48 48 46 43 42 40 39 38 39 40 40 40 39 37

ECMWFFLT2_700_spd_003.txt.gz
Wind_Speed
20 19 18 17 16 14 14 14 14 13 13 12 13 13 14 15 15 16 16 17 18 18 19 19 20 20 20 20 20 20 20 20 20 20 20 20 20 20 20 21 22 23 23 23 23 23 23 24 24 25 25 26
20 19 18 18 17 15 14 14 14 14 13 14 14 15 15 16 16 16 17 17 18 19 20 20 21 21 22 22 23 23 22 23 23 22 22 21 21 21 22 23 24 24 23 23 23 24 25 25 25 26 26 26
20 19 18 18 17 16 15 14 14 14 14 15 15 16 16 16 16 16 16 17 18 19 20 21 21 22 23 23 24 24 24 24 24 24 23 23 23 23 23 24 25 24 24 24 24 25 26 26 26 27 27 27
19 19 19 19 18 17 16 15 14 15 16 16 16 17 17 16 16 16 16 16 17 18 19 20 21 22 22 23 24 24 24 25 25 25 24 24 23 23 24 25 25 24 24 24 25 25 26 27 27 27 27 27
19 19 19 19 18 17 16 16 15 16 16 16 17 17 17 16 16 16 16 16 16 17 17 19 20 21 21 22 23 24 24 24 25 25 24 23 23 24 25 25 25 25 24 25 25 25 26 27 27 27 27 27
19 19 19 19 19 18 17 17 17 17 17 17 17 17 17 16 16 16 16 16 16 16 17 18 18 19 20 21 22 22 23 24 24 24 23 22 22 23 24 25 25 25 25 25 25 25 26 26 26 26 26 26
21 21 19 19 19 18 18 18 18 18 17 17 18 18 17 17 17 17 16 16 16 16 17 17 18 18 19 20 20 21 21 22 22 22 22 22 21 22 23 24 24 24 25 25 25 25 25 25 25 25 25 25
23 22 20 20 19 20 19 19 19 19 18 18 18 18 18 18 18 18 17 17 17 17 17 17 18 18 19 19 19 20 21 21 21 21 22 21 21 22 23 23 24 24 24 24 24 24 24 24 24 24 24 24
25 24 22 21 20 21 20 20 20 19 18 18 19 18 18 19 19 18 18 18 17 18 18 18 18 19 19 20 20 20 21 21 21 21 22 22 21 21 22 23 23 24 24 24 24 24 24 24 23 23 23 22
27 26 24 22 22 22 21 21 21 20 19 19 19 19 19 19 19 18 18 18 18 19 19 19 19 19 20 20 20 21 22 22 22 22 22 22 22 22 22 23 23 23 23 24 24 24 24 24 23 23 23 22
29 28 26 24 24 23 23 23 22 20 19 20 20 20 20 20 19 19 19 19 19 20 20 20 20 20 21 21 21 22 22 23 23 23 23 23 23 23 23 23 23 23 23 24 24 24 24 24 24 24 23 22
30 29 27 25 25 25 24 24 23 21 22 22 22 22 21 21 20 20 20 20 20 21 21 21 21 21 22 22 22 22 23 23 24 24 24 24 24 24 24 24 24 24 24 24 24 25 25 25 26 25 24 23
31 30 27 26 27 26 26 26 24 24 25 24 24 23 23 22 21 21 21 21 21 22 22 22 22 22 22 22 23 23 23 24 25 25 25 24 24 24 24 24 24 24 24 25 25 25 26 26 27 27 26 25
30 30 28 27 28 28 27 27 26 27 27 26 26 25 24 24 23 22 22 22 22 22 22 22 23 23 23 23 24 24 24 25 26 26 26 25 25 25 25 25 25 25 25 25 25 26 26 27 28 28 27 27
28 29 29 28 29 29 29 27 27 28 28 28 28 26 26 26 25 23 22 22 22 22 22 22 23 23 24 24 24 24 25 25 26 27 26 26 26 26 26 26 25 25 26 26 26 26 27 27 28 28 29 28
28 29 29 29 30 30 29 29 29 29 30 30 29 28 27 27 26 24 23 22 21 22 22 23 23 24 24 24 24 25 26 26 27 27 27 27 27 27 26 26 26 26 26 27 27 27 28 28 28 29 29 30
30 30 29 30 31 31 30 30 30 30 30 30 29 29 28 28 27 26 24 23 22 23 23 24 25 25 25 25 26 26 27 28 29 28 28 28 28 28 28 27 26 26 27 27 28 28 28 29 29 30 30 31
34 33 32 32 32 32 32 31 31 31 31 30 29 29 29 29 29 27 26 25 25 25 25 26 27 28 27 27 28 29 30 31 31 31 30 30 29 30 29 29 28 27 27 28 29 29 29 30 31 31 31 31
37 37 36 35 34 33 33 32 31 31 31 30 30 30 31 31 30 28 28 28 27 28 28 29 30 30 30 31 32 33 33 33 34 34 33 32 32 32 31 31 30 29 29 29 29 30 30 31 31 32 32 32
39 39 39 37 37 36 34 33 31 31 31 31 31 32 32 32 31 30 30 30 30 31 31 31 32 32 33 34 36 36 37 37 37 37 36 35 35 34 34 33 33 32 31 30 30 31 31 31 32 32 32 33
39 39 39 38 38 38 36 35 33 33 33 33 33 33 33 32 32 31 31 32 32 33 34 34 35 35 36 37 39 40 40 40 40 40 40 39 38 37 37 37 36 35 34 33 32 32 32 32 33 33 33 34
37 37 38 38 39 38 38 37 35 35 35 35 35 35 35 34 33 33 33 34 34 35 36 37 37 38 39 40 41 43 43 42 42 43 43 42 41 40 40 40 39 38 37 35 34 33 33 33 33 33 34 35
37 37 38 39 39 39 39 39 38 38 37 36 36 36 36 36 36 36 36 37 37 38 39 40 41 41 41 42 43 44 45 44 45 45 45 45 44 43 43 42 42 41 40 38 36 35 35 35 34 34 35 36
39 39 40 41 41 41 41 41 41 40 39 39 38 37 36 36 36 37 37 38 40 41 42 43 44 44 44 44 45 45 45 46 46 46 46 46 46 45 45 45 44 44 43 41 39 37 36 37 36 35 36 36
39 38 39 40 41 41 40 41 41 40 40 40 38 37 36 36 35 35 36 38 40 42 44 46 46 46 46 46 46 46 46 47 47 47 47 47 47 47 47 46 46 45 45 44 42 39 38 39 38 36 36 37
34 36 37 37 37 38 39 40 41 42 42 40 38 37 36 36 36 36 36 38 40 42 45 47 49 49 49 48 48 48 49 50 50 50 50 49 49 48 47 47 47 46 46 45 43 41 41 42 40 38 37 37
33 35 36 36 37 37 40 43 44 44 43 40 39 38 39 40 40 39 39 40 42 43 46 49 50 50 50 51 51 52 53 53 53 53 52 52 51 49 48 48 47 47 47 47 45 44 44 44 42 40 39 38
35 35 36 37 38 39 41 43 44 43 43 42 41 41 42 43 42 41 41 43 45 45 46 48 50 51 51 53 53 54 54 54 54 54 53 53 53 52 50 49 48 47 48 48 47 47 47 46 44 42 40 39
36 37 38 39 40 41 42 42 43 43 43 43 43 44 44 44 43 43 44 46 47 46 47 48 49 51 52 53 53 54 54 53 54 54 55 54 54 54 52 50 49 49 50 50 49 49 50 49 47 45 41 39
37 38 39 40 42 42 42 42 43 43 44 44 45 45 45 45 44 45 46 47 47 46 47 48 49 51 52 52 53 53 54 53 53 54 55 55 55 55 53 52 52 52 52 51 51 51 51 51 49 47 43 41
38 38 38 39 41 42 43 44 44 44 45 45 46 46 46 46 46 46 46 46 46 47 48 49 50 51 52 53 53 54 53 53 52 53 53 55 56 56 54 54 54 54 53 52 52 51 52 53 52 50 47 44

ECMWFFLT2_700_spd_009.txt.gz
Wind_Speed
24 24 25 26 25 25 25 25 26 28 28 27 26 24 23 22 22 22 21 21 21 21 21 21 21 22 22 22 23 23 24 23 23 23 23 24 24 25 25 25 23 23 25 24 24 27 26 26 26 26 26 26
24 24 25 26 26 26 25 25 26 28 29 28 27 25 24 23 23 23 22 22 22 22 22 23 24 24 25 25 25 26 26 26 26 26 25 26 26 26 26 26 24 23 25 24 24 27 27 26 26 26 26 27
23 24 25 26 26 26 25 25 26 27 28 28 28 26 25 24 24 24 24 24 23 24 24 25 26 26 27 27 28 28 29 29 29 29 29 28 28 28 28 28 26 25 25 24 25 27 28 27 26 26 27 27
24 24 25 27 27 26 25 25 26 27 27 28 28 27 26 25 25 25 25 25 25 26 26 27 28 28 28 29 29 30 30 30 30 31 31 31 31 30 30 30 28 27 26 26 26 28 28 27 27 27 27 28
24 24 25 27 28 27 26 25 26 27 28 28 28 28 27 26 26 27 26 26 27 27 28 28 29 29 30 30 30 31 31 31 31 31 31 32 32 32 32 32 31 30 28 28 28 29 29 28 28 28 28 28
23 24 25 27 28 29 28 26 27 28 28 28 29 29 28 28 28 28 28 28 28 28 28 29 29 30 30 30 30 31 31 31 32 32 32 32 32 33 33 32 32 31 29 29 30 30 29 29 29 29 29 29
23 23 24 26 29 30 29 27 27 28 28 29 29 30 30 29 30 30 30 30 29 29 29 29 30 30 30 30 30 31 31 31 31 32 32 32 33 33 33 33 32 31 30 31 31 31 31 30 30 30 30 29
24 24 25 26 28 29 29 29 28 27 27 28 29 30 31 31 31 31 32 32 31 30 30 29 29 30 31 30 30 30 30 30 30 31 32 32 32 32 32 33 32 31 31 31 32 32 32 32 31 31 31 31
27 26 27 28 28 28 29 30 29 28 28 28 28 29 31 32 32 33 34 34 33 31 31 30 29 30 31 30 29 29 30 30 30 30 30 31 31 31 32 32 31 31 31 31 32 32 32 32 32 32 32 32
32 31 30 29 28 29 29 30 30 30 29 29 28 29 31 33 34 34 35 36 34 33 33 32 30 30 31 30 29 29 30 30 30 30 30 29 29 29 30 31 30 30 30 30 30 31 31 32 32 32 32 32
36 36 34 32 31 31 30 30 30 31 32 30 30 30 31 33 34 34 35 35 34 34 35 34 31 31 31 31 30 29 30 30 29 30 30 29 28 28 29 30 29 29 29 29 29 29 30 30 31 31 31 31
39 39 38 37 35 35 34 32 32 32 33 32 33 33 33 33 34 33 34 35 35 35 36 36 34 32 32 32 31 30 30 30 29 29 30 30 29 28 28 29 28 28 28 28 28 28 28 29 30 30 30 30
41 41 41 41 40 39 38 37 35 35 34 34 35 35 36 35 34 33 33 35 36 35 36 37 36 35 33 33 33 32 31 30 29 29 30 30 29 28 27 28 27 27 27 27 27 27 27 28 29 29 29 29
41 43 43 43 44 43 43 41 40 40 39 38 38 39 39 38 36 35 34 34 35 35 36 37 38 37 35 34 34 34 33 31 29 29 30 30 29 28 28 27 27 28 27 27 27 27 27 28 28 28 28 28
42 43 44 45 46 47 47 46 45 45 43 43 43 43 43 41 40 38 37 36 35 35 36 37 38 39 38 37 36 35 34 33 31 30 30 30 30 29 29 28 29 29 28 27 27 27 27 28 28 28 28 28
42 44 45 47 48 49 50 50 50 49 48 47 47 48 47 46 44 42 41 40 38 38 37 37 39 40 40 39 38 36 35 35 34 32 32 32 31 31 30 30 30 29 28 28 27 28 28 28 28 28 28 29
40 44 46 48 49 50 51 52 53 52 52 51 51 52 52 50 49 46 44 44 43 41 40 39 40 41 41 41 40 38 37 36 37 36 35 33 32 32 31 31 31 29 29 29 29 29 29 28 28 29 29 29
36 40 44 48 50 51 52 53 54 55 55 55 55 56 55 55 54 51 48 47 47 46 44 42 42 43 42 42 42 41 39 38 39 38 37 36 34 33 33 32 32 31 30 30 31 30 29 29 29 29 29 29
32 34 38 43 48 51 53 54 55 57 57 58 58 58 58 58 58 55 53 52 51 51 49 46 45 45 44 44 44 44 42 41 41 41 40 38 36 35 34 34 33 33 32 32 32 32 31 31 31 30 30 29
32 32 33 36 41 46 50 54 56 58 59 60 60 60 61 61 61 59 56 56 55 55 54 52 49 48 47 46 46 46 45 44 43 43 42 41 39 37 36 35 35 34 34 34 34 34 33 32 32 32 31 30
34 33 33 33 35 38 42 48 53 57 59 61 62 62 63 63 63 62 60 60 59 59 58 56 54 52 51 50 49 48 47 47 46 46 45 44 42 40 38 38 37 37 36 35 36 36 35 34 34 34 33 33
38 36 35 34 34 34 36 40 44 50 55 60 62 63 64 65 65 64 64 63 62 61 61 59 58 56 55 55 53 51 51 50 49 49 48 47 45 43 42 41 40 39 38 37 37 38 38 37 37 37 36 36
41 40 39 37 36 35 35 36 38 41 46 52 57 61 64 65 66 66 66 65 64 63 63 62 61 60 59 59 57 55 55 54 53 52 52 50 48 46 45 44 43 41 40 40 40 40 40 40 40 39 39 38
43 43 42 41 39 38 37 37 38 38 40 44 48 54 59 63 66 67 67 67 66 65 65 65 64 63 62 62 61 60 59 58 56 55 54 52 50 49 48 46 44 43 43 43 43 42 43 43 42 41 41 40
47 47 47 46 44 42 40 40 40 39 39 40 43 46 51 56 60 64 66 67 68 67 67 67 67 66 66 65 65 63 62 60 59 57 56 54 53 52 50 48 47 46 46 46 45 45 46 45 44 43 43 42
53 53 53 53 51 49 47 44 43 42 42 42 42 42 45 48 52 56 60 63 66 68 69 69 69 69 68 68 67 66 64 63 61 60 59 58 57 55 52 51 51 50 49 48 47 47 47 47 46 45 44 44
61 61 60 60 60 58 55 52 49 47 46 45 44 42 43 45 47 49 51 54 58 62 66 68 69 70 70 70 70 69 67 66 64 63 62 61 59 57 55 54 54 52 51 50 49 49 49 49 48 48 47 46
69 68 67 67 67 66 64 61 58 54 51 49 48 45 43 44 45 46 46 47 48 51 57 62 65 68 70 70 71 71 69 67 66 64 64 63 61 59 58 57 57 54 53 52 51 51 51 50 50 50 49 48
68 68 68 68 69 70 70 67 65 62 59 55 53 50 46 43 43 45 46 46 45 44 47 51 55 61 66 69 70 71 70 68 67 66 65 64 63 61 60 59 59 56 55 53 52 52 52 52 51 50 49 49
60 59 59 59 62 66 69 68 67 65 62 60 57 54 51 47 44 43 45 46 46 45 44 44 46 52 58 65 69 69 69 68 67 67 66 66 65 63 62 61 60 58 56 55 54 53 53 53 52 51 50 50
49 48 48 50 53 57 60 61 61 60 59 59 58 57 55 51 47 44 45 46 46 46 46 45 44 45 48 55 63 66 67 67 67 67 67 67 66 64 63 62 61 59 58 56 55 54 53 54 54 53 52 52

ECMWFFLT2_700_spd_012.txt.gz
Wind_Speed
21 21 22 23 24 24 25 26 26 25 24 24 24 26 27 27 27 26 26 26 25 24 24 23 23 22 22 22 22 22 23 23 23 22 23 23 25 26 27 28 28 26 27 30 31 31 31 31 30 30 30 30
21 21 22 23 24 24 25 26 26 26 26 26 25 26 27 28 28 28 27 27 26 26 25 24 24 24 24 23 23 24 24 25 25 24 24 24 25 25 26 27 25 23 25 28 29 29 30 30 30 30 30 30
21 22 22 23 24 25 26 26 26 26 25 25 25 26 27 29 30 30 30 29 28 28 27 26 25 25 25 25 25 26 26 26 27 26 26 26 26 26 27 27 24 22 24 26 27 28 28 29 29 29 29 29
23 22 23 24 25 26 27 27 27 26 26 25 25 26 27 28 30 31 31 31 30 29 28 27 26 27 27 27 27 27 28 28 28 28 28 28 29 28 29 28 25 23 24 25 26 28 27 27 27 28 28 29
26 25 25 25 26 27 27 28 28 28 28 27 27 26 27 28 29 30 31 31 31 30 30 29 28 28 28 29 29 29 30 30 30 30 30 30 31 30 31 31 27 24 25 27 27 28 28 27 27 27 27 28
28 28 28 27 27 28 28 28 29 29 29 29 28 28 28 29 30 30 30 30 30 30 30 30 30 29 30 30 31 30 31 31 31 32 32 32 33 32 33 34 29 27 29 29 29 30 29 28 28 28 28 28
30 30 29 29 28 29 29 29 30 31 31 30 30 29 29 30 30 31 31 31 31 31 31 32 31 31 31 31 31 31 31 32 32 33 33 33 34 33 35 34 30 30 32 31 31 31 31 30 30 30 29 29
32 31 31 30 30 31 30 30 31 32 32 32 31 30 31 30 30 31 32 33 32 32 32 33 32 32 31 31 32 31 31 32 32 33 34 34 34 34 35 32 31 33 32 32 33 33 33 32 32 32 31 30
33 33 33 32 32 32 32 31 32 33 33 33 33 32 32 31 31 32 33 34 34 34 33 33 33 32 31 31 32 31 30 31 32 33 34 34 34 34 34 32 32 33 32 32 33 33 34 33 32 33 32 32
35 35 35 35 34 34 34 33 32 34 34 34 34 33 33 34 33 33 34 35 36 36 34 34 34 33 32 31 32 32 31 31 32 33 34 34 34 33 33 32 32 32 31 32 32 33 33 32 32 33 32 32
36 37 37 37 37 36 37 35 33 34 35 35 35 34 34 35 36 35 35 36 37 37 35 35 35 33 32 32 33 33 33 32 32 33 34 34 35 34 32 32 32 31 30 31 31 32 32 32 32 32 32 31
37 39 39 40 40 39 39 39 37 35 34 34 35 36 36 37 38 37 38 38 38 38 37 36 36 33 33 33 33 33 34 33 33 33 34 35 35 35 33 32 32 31 30 30 30 31 31 31 31 31 31 31
38 39 41 42 42 42 42 42 41 40 38 36 35 36 37 38 39 40 40 40 40 40 39 37 36 34 34 34 33 34 35 34 34 34 34 35 36 35 34 33 32 31 31 31 30 30 30 30 30 30 30 30
38 40 41 43 44 45 45 45 44 44 43 41 38 37 37 37 38 40 40 40 41 41 41 40 37 36 35 35 35 35 35 34 34 35 35 36 36 35 35 34 32 32 32 31 30 30 29 29 29 29 29 29
35 38 40 43 44 46 47 48 48 47 46 46 45 43 40 39 39 40 40 39 40 41 42 43 40 38 37 37 36 36 36 34 34 35 37 37 36 35 35 34 34 33 32 31 30 30 29 29 29 29 29 29
32 34 36 39 42 44 47 49 50 50 50 49 49 49 48 45 42 41 41 40 42 42 43 46 45 42 40 39 38 37 37 36 35 36 38 39 38 36 36 35 35 34 33 32 31 30 30 29 29 29 29 28
34 34 34 35 37 39 43 46 49 51 52 52 52 52 52 52 50 47 45 43 44 46 46 47 49 47 43 40 40 39 39 38 37 37 39 41 40 38 37 37 36 35 34 32 31 30 30 29 29 29 29 28
38 38 37 37 36 36 37 40 43 47 50 53 54 54 54 55 55 55 53 50 47 48 49 50 51 51 47 44 42 42 40 40 40 40 41 43 43 41 39 38 38 37 36 34 32 31 30 30 29 29 29 28
40 41 41 40 39 38 37 37 38 40 43 47 51 53 55 56 56 57 58 58 54 50 51 53 52 50 51 49 46 45 43 43 43 43 43 45 46 45 43 41 40 39 37 36 34 32 31 30 30 30 29 28
43 44 44 43 42 40 39 39 38 38 38 40 43 47 51 54 57 57 57 59 59 56 53 54 53 50 51 53 51 49 47 47 46 46 45 47 48 48 47 45 43 41 39 38 36 33 32 31 31 30 29 29
48 49 49 47 45 42 39 38 38 39 39 38 39 41 44 47 51 55 57 58 59 60 58 57 57 53 51 54 56 54 53 52 50 49 48 48 49 50 49 48 46 44 42 40 38 36 35 33 32 32 31 30
56 55 54 53 51 48 44 40 38 38 39 39 39 40 41 42 44 47 51 56 58 60 61 61 62 60 56 58 61 60 58 57 55 53 52 51 51 51 51 50 48 47 45 43 41 39 38 36 35 34 33 33
62 61 59 58 57 55 52 48 44 41 40 40 41 41 42 41 42 42 43 47 52 57 61 62 63 64 62 63 65 65 64 61 60 58 56 55 54 53 52 51 50 49 47 46 45 43 41 40 38 37 36 35
65 64 64 62 61 60 59 57 54 51 47 44 44 44 44 43 43 43 43 42 44 48 54 59 63 64 64 63 63 67 69 66 64 62 60 59 57 56 55 53 52 52 51 49 48 47 46 44 42 40 39 38
68 68 68 67 66 65 64 63 61 59 56 52 50 48 48 48 46 45 46 45 44 44 46 50 57 62 64 63 62 64 69 70 68 66 64 62 61 60 58 56 55 55 54 52 52 51 51 49 46 44 42 41
68 67 67 67 68 67 66 66 64 63 61 58 56 54 53 53 52 49 48 48 47 47 46 46 49 53 59 62 63 62 65 69 71 71 69 67 66 64 62 60 59 58 57 57 56 55 54 52 49 47 46 43
58 57 57 58 59 60 62 64 64 64 63 60 58 58 57 55 55 54 52 50 49 49 49 48 48 48 50 54 58 60 62 65 69 72 72 71 69 68 67 65 63 62 61 60 58 57 57 55 52 52 49 46
44 43 44 45 46 48 50 54 57 59 60 59 56 54 55 56 56 56 55 54 52 51 50 50 50 50 49 49 50 53 58 62 65 69 71 73 73 72 71 69 68 67 65 64 62 61 60 58 56 55 51 47
34 35 38 39 40 40 41 43 46 50 53 54 52 47 46 50 54 55 55 55 54 53 52 52 52 51 51 49 48 47 51 56 61 65 68 71 74 75 74 73 72 71 69 68 66 65 63 61 60 55 50 49
30 32 35 37 38 37 37 39 40 43 45 47 48 45 40 40 45 49 52 53 53 52 52 52 53 53 52 50 48 46 45 48 53 59 65 69 71 74 76 76 76 75 73 71 69 67 66 64 60 56 53 54
30 32 35 36 36 36 37 38 39 40 41 42 44 45 42 37 36 40 45 49 50 51 52 52 52 54 54 52 49 46 44 44 45 49 57 64 68 69 71 74 78 78 76 75 73 70 68 66 63 61 60 57

ECMWFFLT2_700_spd_015.txt.gz
Wind_Speed
23 22 21 20 21 21 21 21 21 22 22 23 24 24 24 24 24 23 23 24 25 25 25 25 25 25 25 24 24 25 25 25 25 25 25 25 26 26 28 29 30 30 27 27 32 32 31 31 31 30 30 30
23 23 22 22 22 22 22 22 22 23 23 23 24 24 26 26 26 25 24 25 26 26 26 26 26 26 26 25 25 26 25 25 25 25 25 25 26 26 28 29 29 29 25 26 31 31 31 32 31 31 31 31
23 24 24 24 24 24 24 25 24 24 24 24 24 25 26 27 27 27 26 25 27 28 27 27 27 27 27 27 26 26 26 26 26 25 25 25 26 26 28 30 30 28 25 25 28 30 31 31 31 30 30 31
24 25 25 25 26 26 27 27 27 26 26 26 26 26 27 28 28 28 27 26 27 29 29 29 29 29 29 28 28 27 26 27 27 26 26 26 26 27 28 30 29 27 26 27 28 29 30 31 30 29 30 30
26 26 26 26 27 28 29 29 29 28 28 27 27 28 28 29 29 29 28 27 28 29 30 30 30 30 30 30 29 28 28 27 27 27 27 27 27 28 30 30 27 27 26 27 29 29 30 31 30 29 30 30
29 29 29 28 27 26 27 29 30 30 30 29 29 30 30 30 31 30 30 29 29 29 30 31 30 31 31 31 30 30 29 28 27 27 27 28 29 29 32 31 27 28 28 27 28 30 31 32 30 30 31 30
31 32 32 32 31 28 26 27 29 31 32 31 30 30 32 32 32 32 32 31 30 29 30 31 31 31 32 32 32 31 30 29 28 28 28 29 29 30 33 31 27 29 30 28 28 29 32 33 32 32 32 31
32 33 33 34 34 33 31 29 28 29 32 34 33 32 32 33 34 34 34 33 33 31 31 31 32 32 32 33 33 33 32 31 29 29 29 29 29 31 32 30 27 29 31 30 29 30 34 35 32 33 33 32
34 34 35 35 35 36 35 34 32 31 32 33 34 34 34 34 35 35 36 36 35 34 33 32 32 32 32 33 34 34 34 32 31 31 31 30 30 31 31 29 28 29 31 31 31 32 36 36 33 34 34 32
34 36 37 37 37 37 37 38 37 36 34 33 33 34 36 36 37 37 37 37 37 37 35 34 34 33 32 33 34 35 35 33 33 32 32 31 31 31 30 29 28 29 30 31 30 32 36 36 34 35 35 34
30 34 37 38 39 38 39 39 40 39 38 36 33 32 34 36 39 39 39 38 38 39 38 37 36 35 33 33 34 35 36 34 33 33 33 32 32 31 30 28 28 29 30 30 29 31 35 36 34 34 35 34
27 29 33 36 39 40 40 41 42 42 42 41 38 34 33 34 36 39 41 40 41 41 41 40 39 38 36 34 34 35 36 35 34 35 34 33 33 32 30 28 28 29 30 30 30 30 33 34 33 34 34 34
25 26 28 31 35 37 39 41 42 43 44 44 43 39 36 34 33 35 39 41 42 43 44 44 43 42 39 37 34 34 37 37 35 35 35 34 34 33 31 29 28 29 30 30 30 31 32 32 32 33 33 33
24 25 26 27 29 32 35 37 39 42 44 46 46 44 41 39 36 35 36 38 40 41 44 46 46 45 43 40 38 36 37 38 37 36 36 35 35 34 33 31 29 29 29 30 30 31 32 32 31 32 32 31
25 25 25 26 26 28 30 32 34 37 40 43 46 47 46 44 42 38 37 37 37 40 43 45 45 46 46 44 42 39 38 39 39 37 36 36 36 35 34 32 31 30 30 30 30 31 32 32 32 32 31 31
27 26 26 26 26 27 27 29 30 32 34 38 41 46 48 49 48 46 43 40 38 39 41 42 43 44 45 45 45 43 40 39 40 39 37 37 37 37 35 34 34 33 32 31 30 31 32 32 32 32 32 32
29 28 27 26 26 27 28 29 30 31 31 33 36 40 44 48 51 52 51 49 45 42 40 40 42 43 45 46 45 44 43 41 40 40 38 38 39 39 38 37 36 36 35 33 31 31 32 33 33 32 33 33
34 33 32 30 29 28 29 30 31 32 33 33 34 35 38 42 46 50 53 54 53 51 46 42 43 43 44 46 46 46 45 43 42 41 40 40 41 41 40 39 37 37 36 35 33 32 32 33 34 34 34 33
45 44 42 41 39 37 37 36 34 34 36 37 36 36 36 37 40 44 49 54 57 58 56 53 51 48 44 44 45 48 48 46 45 45 45 44 43 43 42 40 39 38 37 36 35 34 33 33 34 35 35 34
60 58 57 55 53 51 49 47 44 41 40 40 41 40 39 38 38 39 42 48 53 57 60 60 60 58 53 47 45 44 45 47 48 49 50 49 47 47 45 43 41 41 39 38 37 36 36 35 35 36 36 36
68 69 70 70 68 65 62 59 57 53 49 46 45 45 44 42 41 40 39 40 44 49 54 58 61 63 62 59 54 48 43 45 47 50 52 53 52 50 49 46 44 43 42 41 39 37 37 37 37 37 37 37
70 73 76 78 76 74 71 69 66 64 61 57 53 51 49 48 46 44 42 40 40 42 46 50 56 60 63 64 63 60 54 48 46 49 52 54 56 55 53 50 48 46 44 43 41 40 39 39 39 38 38 38
70 76 79 78 75 72 71 71 69 66 64 61 59 57 55 54 52 50 47 44 43 42 43 44 48 53 58 62 63 63 63 57 50 50 53 55 58 59 57 54 51 48 46 45 45 44 42 41 41 40 40 40
75 79 77 71 66 64 64 64 64 63 60 57 56 56 56 57 57 55 53 50 47 46 45 45 45 47 50 55 60 61 62 62 57 52 54 58 59 60 60 58 55 52 49 48 48 48 46 45 44 44 44 43
78 73 65 58 55 53 54 55 56 55 53 51 49 49 50 53 56 57 56 55 52 51 49 48 47 47 47 49 53 57 58 61 62 56 52 54 58 60 63 62 59 56 54 53 52 52 51 50 49 48 48 47
64 56 49 45 43 42 44 46 47 46 45 45 44 43 43 44 48 52 54 55 55 54 53 52 50 49 49 48 49 52 54 57 62 61 54 50 52 56 62 66 65 61 58 58 57 55 55 54 53 52 52 51
45 41 38 35 34 36 39 43 42 40 38 39 39 39 38 37 39 43 47 49 52 54 55 54 53 52 51 50 50 51 52 53 56 60 59 56 53 53 56 62 67 69 66 63 60 59 58 58 57 56 56 55
38 36 34 33 34 37 40 42 41 39 36 34 35 36 37 36 34 35 39 42 45 49 53 54 55 54 53 52 51 51 52 52 51 53 56 58 57 56 55 57 62 68 69 67 65 63 63 62 61 60 59 58
37 36 34 35 36 37 40 41 41 39 35 33 33 34 36 37 34 31 31 34 38 42 47 50 51 52 53 52 52 52 52 53 52 51 50 52 54 57 59 60 60 63 65 67 68 68 67 66 65 64 62 59
37 36 36 37 37 38 40 41 41 38 35 33 33 34 34 36 37 33 29 28 32 36 40 44 46 49 50 51 52 52 53 53 53 53 51 49 49 53 58 61 61 61 62 64 67 68 69 69 67 65 63 61
35 35 36 36 36 37 39 41 40 37 35 35 35 34 34 34 35 35 32 28 27 30 35 39 42 45 49 50 51 51 52 53 52 52 52 50 48 47 51 57 62 63 63 63 65 67 69 70 70 69 67 65

ECMWFFLT2_700_spd_018.txt.gz
Wind_Speed
22 18 18 19 20 21 23 22 19 18 18 18 18 18 17 19 21 22 22 21 20 21 22 22 22 22 23 24 25 26 26 26 26 25 26 28 27 25 26 27 28 29 25 26 32 32 31 31 30 30 30 29
24 21 18 18 20 20 22 24 23 20 20 20 20 20 20 21 23 23 23 23 22 22 22 23 23 23 24 25 26 27 27 27 27 26 26 26 27 26 27 26 26 28 24 23 29 31 31 31 31 31 31 30
26 24 21 20 20 20 21 24 25 24 22 22 22 22 22 23 24 24 24 24 23 22 23 24 24 23 23 25 26 27 28 29 28 27 27 27 27 27 27 27 26 28 26 23 25 27 29 30 31 31 31 30
27 26 25 23 23 23 24 24 26 25 23 23 24 23 23 24 25 26 25 25 25 23 24 26 25 23 23 24 26 27 28 29 29 28 27 27 27 28 27 27 27 26 25 25 24 23 25 27 29 30 30 30
27 28 28 27 26 26 26 25 25 24 24 25 27 26 26 26 27 27 26 26 27 26 25 26 27 25 23 24 26 27 28 29 30 29 28 28 28 28 29 27 27 25 23 24 25 24 23 24 26 28 28 29
27 28 29 29 29 28 27 26 25 24 23 25 26 28 29 30 29 28 28 28 28 29 28 28 28 27 25 25 26 27 28 29 30 30 28 28 28 28 30 30 28 25 23 24 25 25 25 25 26 27 28 28
26 29 30 30 30 30 30 29 28 26 25 24 24 26 28 31 32 31 31 31 30 31 31 31 30 29 29 26 26 27 28 29 29 30 29 29 30 30 32 31 28 25 25 25 25 26 26 26 27 28 29 28
26 28 30 31 32 32 32 32 31 30 28 27 25 25 25 28 32 34 34 33 33 33 33 34 33 32 31 29 28 27 29 29 29 31 30 31 31 33 34 32 28 28 27 27 26 27 26 25 27 29 29 29
25 26 28 31 32 33 34 33 33 33 32 30 29 29 27 27 28 32 35 36 36 36 36 36 36 35 33 32 31 29 29 29 29 30 31 32 32 35 36 32 30 30 29 28 29 30 30 28 30 31 31 31
24 24 26 28 30 32 34 34 34 34 34 34 34 34 33 31 30 30 32 36 38 38 39 39 39 39 37 35 34 32 32 31 30 31 31 33 34 35 35 33 32 32 29 29 30 32 33 32 33 35 34 33
23 23 23 24 26 29 32 33 35 36 36 36 37 37 37 37 35 33 32 33 36 37 39 41 41 42 41 39 37 35 34 33 32 32 32 33 35 36 35 33 33 32 30 29 30 31 32 33 34 35 35 34
23 23 23 24 25 26 28 30 33 35 36 38 39 40 40 40 40 38 36 33 33 35 37 39 41 42 43 42 40 38 37 36 35 35 34 34 35 35 35 34 33 32 30 30 30 31 30 31 33 34 34 35
24 24 24 24 25 26 27 28 30 31 34 36 38 40 41 42 42 41 41 39 34 33 35 38 39 41 43 43 42 42 40 39 37 37 37 36 36 36 35 34 34 32 31 30 31 31 30 30 31 31 32 34
26 27 27 27 27 28 28 29 29 30 30 32 34 37 39 41 43 44 45 44 41 37 36 38 40 41 42 43 43 44 44 43 40 38 39 39 37 37 36 35 34 33 32 31 31 31 29 28 28 28 30 32
31 32 32 32 32 31 31 31 31 31 30 30 30 32 34 37 40 44 46 48 47 45 42 40 38 39 40 42 44 45 45 45 44 41 40 41 40 38 37 36 35 34 33 32 31 31 30 28 28 27 28 30
35 36 36 36 36 36 35 34 34 33 32 31 30 29 30 32 34 38 43 47 49 51 50 47 42 38 37 41 43 44 45 46 46 45 43 43 42 40 39 38 37 36 35 34 32 32 31 30 29 28 28 29
43 44 45 45 44 43 42 40 39 38 36 34 32 31 30 30 31 34 38 42 46 50 53 54 51 46 41 41 41 43 46 47 47 46 46 45 45 44 43 41 40 39 38 36 34 33 33 32 31 29 28 29
50 53 55 55 55 54 53 51 48 46 44 42 39 37 36 35 34 34 36 39 41 45 49 53 56 55 51 47 45 45 45 46 48 49 48 47 47 48 48 46 44 42 41 39 37 36 34 33 31 30 29 28
52 56 58 59 60 61 61 60 59 57 54 51 49 47 45 43 41 39 38 39 40 42 45 48 52 55 57 55 52 51 47 45 45 48 49 49 49 49 49 49 47 45 44 42 39 37 36 34 32 30 29 28
56 60 62 62 62 62 63 65 65 65 64 61 58 55 53 51 49 48 46 44 43 43 43 45 48 50 54 58 58 57 55 50 46 45 47 49 52 52 50 49 49 47 45 44 42 40 38 36 34 32 31 29
61 64 67 68 67 66 66 67 68 69 69 69 67 63 61 58 57 56 54 52 49 48 47 46 46 47 50 53 58 60 60 58 53 49 48 49 51 53 53 52 49 48 47 44 43 42 42 40 37 35 33 31
68 71 73 73 71 71 70 70 70 70 71 72 73 71 69 66 65 64 62 60 58 54 52 50 49 48 49 50 54 58 61 62 59 54 50 49 50 50 53 55 52 49 48 46 44 43 44 43 41 38 36 34
77 78 78 78 76 74 73 73 72 72 73 73 75 76 76 74 71 68 66 64 63 61 58 55 54 52 51 51 52 55 59 62 62 59 51 49 51 52 53 54 54 51 49 47 47 46 45 45 45 42 39 37
82 82 82 79 75 72 69 68 67 66 67 68 70 72 74 75 71 64 61 61 62 62 61 58 58 57 54 53 54 55 56 59 62 62 56 49 48 51 53 54 53 52 49 47 47 48 48 47 48 47 45 43
79 76 73 67 62 60 58 55 54 54 54 55 58 60 62 64 63 56 51 52 55 57 59 59 59 60 60 58 57 57 57 57 59 61 60 56 50 47 50 53 54 53 50 48 47 49 52 52 52 52 51 50
66 62 55 51 49 48 48 46 45 45 45 46 47 49 50 52 52 49 45 44 47 51 55 57 58 60 62 62 61 60 59 58 59 59 60 60 57 52 50 51 54 56 55 53 50 50 53 55 55 55 56 56
50 47 43 42 42 42 43 43 42 42 42 42 42 43 45 44 43 43 41 38 41 46 50 54 57 60 61 62 62 62 62 61 60 60 59 59 59 57 54 51 51 54 58 57 54 51 53 55 56 59 61 61
42 40 40 39 39 40 42 43 43 43 41 40 40 41 41 41 39 40 40 36 36 40 45 49 54 57 59 61 62 62 62 62 61 61 60 59 59 57 56 54 52 53 54 55 55 55 55 54 56 61 63 63
43 42 42 41 40 39 40 41 42 42 42 41 41 42 40 40 39 37 37 36 35 36 39 42 47 52 57 58 60 61 62 62 62 62 61 60 60 59 57 55 55 55 53 53 54 57 56 55 58 62 62 63
46 46 45 44 43 40 39 39 39 40 41 41 41 41 41 39 36 34 34 35 35 35 35 37 40 45 51 55 57 59 61 62 61 62 62 61 60 60 60 58 57 58 57 53 52 56 58 58 58 60 60 61
46 47 46 45 44 42 41 40 39 40 41 42 42 42 41 39 36 35 35 35 34 34 34 35 36 39 44 49 53 55 58 61 61 61 61 61 61 60 60 59 58 60 59 56 53 54 57 59 59 59 61 61

ECMWFFLT2_700_spd_024.txt.gz
Wind_Speed
27 27 26 27 29 31 30 27 26 27 27 28 27 25 23 22 23 24 24 24 24 23 22 20 20 20 20 20 20 21 20 18 16 16 17 17 18 20 20 20 24 27 22 20 22 16 12 17 21 24 24 24
25 26 28 30 31 33 33 30 27 27 28 29 29 28 26 25 25 25 25 25 25 26 25 23 22 21 20 20 20 22 22 19 16 15 17 17 18 20 21 20 23 28 26 22 23 17 12 15 20 24 26 26
25 26 29 32 33 34 33 32 30 27 27 29 29 29 29 27 26 26 26 26 26 27 26 25 24 23 22 21 20 21 22 22 19 16 16 17 18 20 21 21 22 27 27 25 24 20 14 14 18 23 27 27
26 27 28 31 33 34 34 33 32 29 28 28 30 31 30 29 29 28 28 27 27 27 27 27 27 25 25 24 22 22 23 23 22 20 17 17 17 19 21 22 23 26 27 27 25 23 17 14 16 21 27 29
27 27 27 29 31 33 34 33 33 32 30 29 30 31 31 31 31 30 29 29 29 29 29 30 30 29 27 26 24 24 24 24 24 23 21 18 18 20 22 24 25 25 27 28 28 26 20 15 15 18 25 30
27 27 27 28 30 32 34 34 34 34 33 31 30 30 31 32 32 31 31 31 30 31 32 32 32 32 31 29 28 27 26 25 25 24 24 22 19 20 23 24 25 26 27 30 30 28 23 18 17 18 21 27
27 27 27 28 29 31 33 34 35 35 36 34 33 32 33 33 32 32 32 32 31 32 34 35 35 34 34 33 32 31 30 28 27 25 25 25 23 22 23 24 26 28 30 32 32 30 28 23 20 19 19 23
25 25 25 26 27 29 31 33 34 35 37 37 37 36 35 34 33 32 32 32 32 32 33 35 37 37 36 35 34 34 32 30 29 28 26 26 27 26 25 24 25 29 31 34 33 31 30 26 21 20 20 21
22 22 23 24 24 26 27 30 33 35 37 39 39 39 38 37 36 35 33 31 32 33 34 35 37 38 38 37 35 34 33 32 32 31 29 28 27 28 28 27 26 28 32 34 33 31 31 28 24 21 22 22
20 20 21 22 22 23 24 26 29 33 36 39 41 41 41 40 40 40 38 35 34 33 33 35 38 39 39 38 37 35 35 34 34 33 32 30 30 30 30 30 29 29 31 33 32 32 34 32 27 23 23 25
20 20 20 20 21 22 22 23 25 27 30 35 39 41 42 42 42 41 41 40 39 37 34 34 35 36 37 37 37 37 37 36 35 35 35 35 35 34 32 32 32 32 32 33 32 32 34 33 28 26 25 27
22 21 21 21 21 21 22 22 23 24 25 27 30 34 38 40 41 42 42 42 42 42 40 38 35 33 35 37 37 38 38 38 38 37 37 37 38 38 36 33 33 34 34 34 33 32 33 33 29 26 27 29
24 24 23 23 23 23 23 23 23 23 24 24 25 26 28 31 34 37 40 42 43 44 45 45 42 38 35 36 38 39 40 40 40 40 39 38 39 40 39 37 35 35 36 36 35 34 34 34 31 27 27 30
26 26 26 26 26 26 25 25 25 25 25 25 26 26 27 27 28 30 32 35 38 40 42 44 46 45 43 39 38 38 40 42 42 42 42 41 41 41 42 41 39 38 38 38 37 37 37 36 33 30 28 29
30 29 29 28 28 28 28 29 29 29 29 29 29 29 29 30 30 30 31 32 33 34 36 38 41 43 46 46 45 42 40 41 42 42 43 43 44 43 43 44 43 42 40 40 39 38 38 38 36 33 30 29
33 33 33 33 32 31 31 31 31 32 32 32 32 33 33 34 35 35 35 36 36 36 36 37 38 39 42 45 47 48 47 46 44 43 42 44 46 45 45 45 46 46 44 43 42 40 40 39 38 36 33 30
36 36 36 36 36 36 36 36 36 36 36 36 36 37 38 39 40 41 42 43 43 43 43 43 42 42 43 44 45 47 49 51 51 48 45 45 46 46 46 47 48 48 47 45 43 42 41 41 40 38 37 35
38 38 39 39 39 39 39 40 40 42 42 43 44 44 45 45 45 46 48 50 51 52 52 52 51 49 48 48 48 48 49 51 53 54 52 49 48 47 46 45 47 49 49 47 45 44 43 42 42 40 39 38
42 42 43 44 44 45 44 45 45 47 48 50 51 52 52 53 53 53 53 54 56 57 58 58 58 57 56 54 52 52 52 53 53 55 57 57 55 52 50 47 46 49 51 49 47 46 45 43 43 42 41 40
49 50 51 52 52 52 52 53 53 54 55 56 58 59 60 60 60 60 61 61 62 63 63 63 63 63 63 62 60 58 56 56 56 55 56 59 61 59 57 54 50 48 49 52 51 49 47 45 44 44 43 42
54 56 58 60 61 62 62 62 63 63 62 63 64 65 66 67 66 66 67 68 68 69 69 69 69 69 69 69 68 65 61 59 59 59 57 58 60 62 62 60 57 52 49 50 53 53 51 48 47 46 45 44
59 61 62 64 65 66 67 68 69 69 69 68 68 68 69 70 71 72 72 71 71 71 72 73 73 73 73 73 73 71 66 63 61 61 62 60 59 62 64 63 61 59 56 51 50 53 53 51 50 49 48 47
64 65 66 66 67 68 69 70 71 71 72 72 72 72 72 73 75 77 76 73 71 70 70 71 72 72 72 73 72 71 68 65 63 63 64 64 62 61 63 65 64 62 62 58 53 52 52 53 53 52 51 50
67 69 70 70 71 72 73 73 73 74 75 76 76 76 76 76 77 76 73 70 68 67 67 67 68 69 69 69 68 68 67 65 64 64 65 66 67 64 63 65 65 64 63 62 59 56 54 53 54 55 55 54
72 74 75 75 76 77 77 78 79 80 80 78 77 75 74 73 71 69 66 65 64 63 63 63 64 64 64 63 63 64 64 64 64 64 65 66 69 69 66 65 65 65 65 64 62 61 59 57 55 55 56 56
75 76 77 78 79 81 81 81 80 78 76 73 71 69 67 65 63 62 60 59 58 58 58 58 59 59 58 58 59 60 61 62 63 64 65 66 69 72 71 69 67 65 66 66 65 63 62 62 60 57 56 55
76 76 77 76 76 75 74 72 69 67 65 64 64 63 61 59 57 55 53 52 52 52 52 53 53 53 53 54 55 56 58 59 61 63 64 66 68 72 74 73 71 68 67 67 66 63 62 63 63 62 62 58
73 72 70 67 64 63 61 61 59 57 57 57 57 56 54 52 50 49 48 47 46 47 48 48 49 49 49 50 51 53 55 56 58 60 62 64 66 70 74 75 74 72 70 68 66 64 62 62 61 62 66 65
66 64 62 60 58 56 55 54 53 52 52 52 53 53 49 44 42 42 43 42 42 43 45 45 45 45 45 47 49 50 51 52 54 56 58 60 63 66 71 74 75 75 73 71 69 66 64 62 61 60 62 64
58 58 57 56 55 55 53 52 50 49 49 49 50 49 45 40 38 39 39 39 40 41 42 42 43 43 43 44 46 46 46 46 48 50 53 55 58 62 65 69 73 74 74 72 71 69 67 64 63 61 59 58
51 51 52 53 52 52 52 51 50 48 48 48 48 46 43 40 38 37 36 36 37 39 40 40 41 42 42 42 43 43 43 42 43 45 48 50 52 56 59 63 68 71 71 71 71 70 68 67 65 63 62 60